SCP
1 1 1 1 1 1 1 1 1 1 1 1 0 0 0 0 0 0 0 0 0 0 0 0 0 0 0 0 0 0 0 0 0 0 0 0 0 0 0 0 0 0 0
1 1 1 1 1 1 1 1 1 1 1 1 0 0 0 0 0 0 0 0 0 0 0 0 0 0 0 0 0 0 0 0 0 0 0 0 0 0 0 0 0 0 0
1 1 1 1 1 1 1 1 1 1 1 0 0 0 0 0 0 0 0 0 0 0 0 0 0 0 0 0 0 0 0 0 0 0 0 0 0 0 0 0 0 0 0
2 1 1 2 1 1 1 1 1 1 1 0 0 0 0 0 0 0 0 0 0 0 0 0 0 0 0 0 0 0 0 0 0 0 0 0 0 0 0 0 0 0 0
2 2 2 2 2 1 1 1 1 1 1 0 0 0 0 0 0 0 0 0 0 0 0 0 0 0 0 0 0 0 0 0 0 0 0 0 0 0 0 0 0 0 0
2 2 2 2 2 1 1 1 1 1 0 0 0 0 0 0 0 0 0 0 0 0 0 0 0 0 0 0 0 0 0 0 0 0 0 0 0 0 0 0 0 0 0
2 2 2 2 2 1 1 1 1 1 0 0 0 0 0 0 0 0 0 0 0 0 0 0 0 0 0 0 0 0 0 0 0 0 0 0 0 0 0 0 0 0 0
2 2 2 2 2 2 1 1 1 1 1 0 0 0 0 0 0 0 0 0 0 0 0 0 0 0 0 0 0 0 0 0 0 0 0 0 0 0 0 0 0 0 0
2 2 2 2 2 2 1 1 1 1 1 0 0 0 0 0 0 0 0 0 0 0 0 0 0 0 0 0 0 0 0 0 0 0 0 0 0 0 0 0 0 0 0
3 2 18 28 18 2 2 1 1 1 1 1 0 0 0 0 0 0 0 0 0 0 0 0 0 0 0 0 0 0 0 0 0 0 0 0 0 0 0 0 0 0 0
3 2 29 55 28 2 2 1 1 1 1 1 0 0 0 0 0 0 0 0 0 0 0 0 0 0 0 0 0 0 0 0 0 0 0 0 0 0 0 0 0 0 0
3 2 18 29 18 2 2 1 1 1 1 1 1 0 0 0 0 0 0 0 0 0 0 0 0 0 0 0 0 0 0 0 0 0 0 0 0 0 0 0 0 0 0
2 2 2 2 2 2 2 1 1 1 1 1 1 0 0 0 0 0 0 0 0 0 0 0 0 0 0 0 0 0 0 0 0 0 0 0 0 0 0 0 0 0 0
2 2 2 2 2 2 1 1 1 1 1 1 0 0 0 0 0 0 0 0 0 0 0 0 0 0 0 0 0 0 0 0 0 0 0 0 0 0 0 0 0 0 0
1 1 1 1 2 2 1 1 1 1 1 1 0 0 0 0 0 0 0 0 0 0 0 0 0 0 0 0 0 0 0 0 0 0 0 0 0 0 0 0 0 0 0
1 1 1 1 1 1 1 1 1 1 1 1 0 0 0 0 0 0 0 0 0 0 0 0 0 0 0 0 0 0 0 0 0 0 0 0 0 0 0 0 0 0 0
1 1 1 1 1 1 1 1 1 1 1 1 0 0 0 0 0 0 0 0 0 0 0 0 0 0 0 0 0 0 0 0 0 0 0 0 0 0 0 0 0 0 0
1 1 1 1 1 1 1 1 1 1 1 1 0 0 0 0 0 0 0 0 0 0 0 0 0 0 0 0 0 0 0 0 0 0 0 0 0 0 0 0 0 1 1
1 1 1 1 1 1 1 1 1 1 1 1 0 0 0 0 0 0 0 0 0 0 0 0 0 0 0 0 0 0 0 0 0 0 0 0 0 0 0 0 0 1 1
1 1 1 1 1 1 1 1 1 1 1 1 1 1 0 0 0 0 0 0 0 0 0 0 0 0 0 0 0 0 0 0 0 0 0 0 0 0 0 0 0 0 0
2 2 1 1 1 1 1 1 1 1 1 1 1 0 0 0 0 0 0 0 0 0 0 0 0 0 0 0 0 0 0 0 0 0 0 0 0 0 0 0 0 0 0
2 2 2 1 1 1 1 1 1 1 1 1 0 0 0 0 0 0 0 0 0 0 0 0 0 0 0 0 0 0 0 0 0 0 0 0 0 0 0 0 0 0 0
2 2 2 2 2 2 2 1 1 1 1 1 0 0 0 0 0 0 0 0 0 0 0 0 0 0 0 0 0 0 0 0 0 0 0 0 0 0 0 0 0 0 0
2 2 2 2 2 3 2 1 1 0 0 0 0 0 0 0 0 0 0 0 0 0 0 0 0 0 0 0 0 0 0 0 0 0 0 0 0 0 0 0 0 0 0
1 1 2 2 2 2 2 2 1 0 0 0 0 0 0 0 0 0 0 0 0 0 0 0 0 0 0 0 0 0 0 0 0 0 0 0 0 0 0 0 0 0 0
1 1 1 1 2 2 2 2 1 1 0 0 0 0 0 0 0 0 0 0 0 0 0 0 0 0 0 0 0 0 0 0 0 0 0 0 0 0 0 0 0 0 0
Wind_Speed
8 10 16 17 16 16 17 17 17 17 17 16 16 16 15 15 14 13 12 12 11 10 10 10 10 10 10 10 11 11 12 12 13 13 14 14 15 15 16 16 15 12 16
13 13 18 17 17 17 17 16 16 16 16 16 15 15 14 14 13 12 12 11 11 11 11 10 10 10 11 11 11 11 12 12 12 13 13 13 15 15 15 15 14 10 15
15 12 15 17 17 17 16 16 16 16 15 15 14 14 13 13 12 12 11 11 11 11 10 10 11 10 10 11 11 11 11 12 12 13 12 8 10 14 14 14 15 15 15
15 11 13 18 18 17 16 16 15 15 15 14 14 13 13 12 11 11 11 11 11 10 10 10 11 10 10 10 10 11 11 12 12 12 7 7 8 13 14 14 14 14 14
12 10 13 20 18 17 16 16 15 15 14 14 13 12 12 11 11 10 10 10 10 10 10 10 10 10 10 10 10 10 11 12 12 9 6 6 6 12 13 13 13 13 13
11 10 13 19 18 17 16 16 15 14 14 13 12 11 11 10 10 10 9 9 9 9 9 9 9 9 9 9 9 9 10 11 10 7 6 6 6 11 13 13 13 12 12
11 8 12 19 18 17 16 16 15 14 13 13 12 11 10 10 9 9 9 8 8 8 8 8 8 8 8 8 8 8 9 12 8 6 6 6 6 11 13 12 12 12 12
12 9 10 18 18 17 16 15 15 14 13 12 12 11 10 9 9 8 8 8 7 7 7 7 7 7 7 6 6 6 9 11 9 7 6 5 8 10 12 12 11 11 11
10 9 7 9 12 16 16 15 14 13 12 12 11 10 9 9 8 7 7 6 6 6 6 6 5 5 5 5 5 5 7 11 8 5 7 5 8 10 12 12 11 11 11
7 7 6 6 6 7 8 14 14 13 12 11 10 10 9 8 7 7 5 5 5 5 5 5 4 4 4 4 3 5 7 9 6 6 4 5 9 11 12 11 11 11 11
8 5 6 6 6 6 6 10 11 12 11 10 8 9 6 3 3 3 4 4 5 4 3 3 3 3 3 3 3 4 5 3 5 4 4 7 10 11 11 11 11 10 10
10 7 5 6 6 6 6 5 4 4 4 4 3 4 3 3 2 2 1 3 4 3 2 2 1 2 3 2 2 3 2 3 3 3 3 8 10 10 11 11 10 10 10
9 8 6 6 6 5 3 4 3 2 3 3 4 4 3 3 2 1 1 1 1 2 1 2 2 2 2 1 1 1 2 2 2 2 3 8 8 9 10 11 10 10 10
9 8 7 6 6 5 4 4 3 3 3 2 3 4 3 2 2 1 1 1 1 1 1 1 1 2 2 2 1 2 2 2 2 1 2 7 7 8 9 10 10 10 10
9 8 7 7 6 5 4 4 4 3 3 3 3 3 3 3 2 2 1 1 1 1 1 1 1 1 2 2 1 2 2 2 2 2 1 4 6 7 8 9 10 9 10
9 9 7 7 6 5 4 3 4 3 3 3 3 3 4 3 3 3 2 2 1 1 1 1 1 2 1 1 1 1 1 1 1 2 1 1 3 5 7 8 8 9 9
8 7 8 7 6 6 5 4 4 4 4 3 3 3 4 4 4 3 3 2 1 1 2 2 2 2 2 2 2 1 1 0 0 1 1 0 0 2 4 6 7 7 8
8 8 8 8 8 6 5 5 4 4 4 3 3 3 4 4 4 4 3 2 2 2 2 2 2 2 2 2 1 1 1 1 0 0 1 1 1 1 2 4 5 6 8
8 8 8 6 7 7 5 4 4 4 4 3 3 3 3 4 4 4 3 2 2 2 2 2 2 2 2 1 1 2 2 1 1 1 1 1 1 1 1 1 3 5 7
8 7 7 6 6 7 5 4 3 4 3 3 3 3 4 4 4 4 3 3 3 3 2 2 3 3 2 1 2 3 3 2 2 2 2 1 0 1 1 1 0 1 4
8 7 7 7 7 7 5 5 4 3 3 2 2 4 4 4 5 4 4 3 3 3 2 2 2 3 2 1 2 3 3 3 3 2 2 2 1 1 1 1 1 1 1
10 9 8 8 8 8 5 4 3 4 3 2 2 3 4 5 5 5 5 3 3 3 3 2 2 2 2 2 2 2 2 3 3 3 2 2 2 1 0 0 1 1 1
10 11 10 9 9 8 7 5 4 4 3 2 2 2 2 4 4 5 5 4 4 3 3 2 2 3 2 2 2 3 3 2 1 2 3 2 2 2 1 1 0 0 1
10 9 9 9 8 8 9 8 9 6 5 4 3 3 3 3 4 5 5 5 4 3 3 2 2 2 3 2 1 2 1 2 2 0 2 2 2 2 2 1 1 0 0
8 8 8 9 8 8 9 10 9 6 4 3 3 4 3 2 3 4 5 5 4 3 3 3 2 2 2 3 2 2 2 2 2 2 0 2 2 2 1 1 1 0 0
6 7 8 9 8 8 9 9 9 9 7 7 6 5 4 2 2 4 5 4 4 4 4 3 3 3 2 3 2 2 2 2 2 2 2 0 1 2 2 1 1 1 1
Wind_Direction
156 157 152 144 137 132 128 125 122 120 119 119 120 122 124 126 129 129 128 126 124 120 115 111 109 109 109 110 111 113 115 117 120 121 121 120 119 117 116 113 111 109 111
148 154 152 147 142 137 132 129 126 124 123 123 123 125 125 126 128 129 127 126 123 119 117 114 111 111 110 111 114 117 120 122 123 123 123 123 121 119 117 116 115 118 117
145 151 151 149 145 141 137 134 132 129 127 126 126 126 126 127 128 128 128 126 123 120 117 113 110 110 111 115 118 120 123 125 124 121 117 114 120 122 122 121 120 120 119
145 148 151 151 148 144 141 139 136 132 131 129 128 129 129 129 130 129 127 125 124 121 118 114 112 110 112 115 118 121 124 125 122 118 109 117 123 127 126 123 122 122 121
143 146 155 153 150 148 145 142 139 136 134 133 133 133 132 130 130 128 127 126 125 123 121 116 114 112 112 116 120 125 130 131 126 116 111 111 117 131 128 126 126 125 125
143 148 157 154 152 150 148 146 143 142 140 137 137 137 135 133 131 128 127 125 123 123 121 119 116 114 114 116 121 127 135 137 126 119 117 120 126 135 132 130 130 130 128
143 148 157 155 154 153 152 150 148 147 145 143 141 140 138 135 134 133 131 128 126 124 121 120 119 115 113 115 119 125 137 140 131 129 128 130 138 139 135 133 133 133 131
146 146 152 157 155 155 155 155 152 151 148 147 146 145 145 141 139 139 139 137 135 132 127 123 121 117 111 112 116 122 134 138 137 140 138 142 147 142 139 137 135 135 135
142 142 146 154 156 158 158 157 155 154 152 151 151 151 150 147 144 143 143 141 139 139 136 133 128 120 114 111 115 121 136 140 136 143 150 150 153 148 144 143 141 140 139
134 139 139 141 143 148 156 160 159 158 157 157 157 158 156 152 149 147 146 150 147 148 147 143 136 126 114 108 116 129 133 132 140 147 147 161 162 157 152 149 148 145 144
149 148 142 142 139 140 149 164 161 161 162 158 160 161 146 111 106 129 157 163 159 159 156 150 145 129 105 94 118 127 121 121 138 141 151 170 169 165 159 156 153 153 152
167 167 153 150 144 143 156 147 140 141 142 132 121 124 109 104 109 128 172 165 156 153 146 126 117 99 85 69 99 113 106 129 132 146 169 175 175 173 167 163 160 159 158
166 168 163 156 147 146 139 134 124 115 117 116 121 121 115 107 99 86 66 50 53 84 55 48 54 59 75 97 102 119 132 134 140 150 177 180 182 181 174 170 168 167 165
167 172 164 155 149 151 138 135 130 127 128 129 134 135 129 123 121 115 104 90 70 60 69 53 54 58 64 85 124 143 146 142 153 148 186 185 186 188 183 179 177 176 174
173 172 171 160 156 150 139 147 145 142 142 141 136 142 142 140 141 130 113 102 97 87 89 80 72 73 68 67 113 149 159 159 160 147 165 200 192 194 192 190 188 186 183
179 174 169 166 158 150 151 149 144 144 138 135 139 146 144 142 143 134 116 106 92 90 98 97 91 90 72 70 81 112 170 166 159 156 164 220 213 201 199 199 199 196 195
178 173 172 168 159 157 157 156 145 142 139 137 137 142 142 140 142 133 123 116 102 94 94 80 72 69 76 70 62 65 83 95 133 169 171 194 266 234 217 210 207 205 207
174 174 178 177 164 163 157 150 140 138 136 135 135 135 135 135 135 127 125 124 114 97 91 90 73 70 60 62 53 29 36 39 359 214 197 220 221 250 245 227 216 213 215
179 173 173 168 160 158 149 141 134 131 131 131 131 129 129 130 130 124 121 117 113 98 87 92 67 80 81 70 76 53 34 24 356 322 279 245 217 211 226 259 237 224 225
174 170 167 158 153 144 133 120 108 109 115 121 131 137 135 133 130 120 114 112 110 102 87 80 82 66 70 64 73 59 40 28 29 20 351 343 236 206 191 189 209 246 238
171 174 167 162 155 149 146 146 142 146 144 135 142 144 143 139 135 128 120 114 112 110 113 112 101 80 55 41 78 45 23 30 43 31 18 21 19 5 157 164 165 177 249
180 184 177 172 166 165 163 154 143 137 136 134 132 137 148 144 143 140 135 133 126 112 96 92 110 106 60 41 106 93 40 7 6 16 15 28 14 5 28 171 171 188 203
186 186 185 183 177 169 155 132 114 96 87 106 132 149 161 155 150 142 146 142 141 131 125 120 123 125 118 55 58 134 141 195 313 346 7 21 11 16 9 4 315 214 201
190 185 181 177 172 166 160 160 159 159 163 180 172 167 160 160 157 152 150 148 145 139 141 145 128 126 130 126 77 56 97 143 144 61 344 356 3 19 6 357 5 354 213
181 179 174 172 174 170 171 170 165 161 157 145 148 156 160 162 166 160 155 152 151 149 150 141 125 121 126 141 144 131 100 72 85 134 173 333 350 353 348 335 320 312 272
171 172 172 172 176 174 174 173 172 168 162 157 165 171 171 165 171 173 163 163 162 159 159 156 144 131 124 123 128 139 149 149 154 141 152 217 307 316 325 316 289 262 242